[[{"header":{"parameterUnit":"m.s-1","parameterCategory":1,"la1":30.2991,"la2":30.254,"lo1":-89.0895,"lo2":-89.0444,"dy":0.0017,"dx":0.0017,"nx":28,"ny":28,"refTime":"2025-01-19T03:00:00:Z","depth":0,"parameterNumber":2,"parameterNumberName":"U-component_of_WINDS"},"data":[0,0,0,0,0,0,0,0,0,0,0,0,0,0,0,0,0,0,0,0,0,0,0,0,0,0,0,0,0,0,0,0,0,0,0,0,0,0,0,0,0,0,0,0,0,0,0,0,0,0,0,0,0,0,0,0,0,0,-6.8468,-6.8468,0,-6.849,-6.8491,-6.8491,-6.8306,-6.8301,-6.8296,-6.8291,-6.8316,-6.8321,-6.8326,0,0,0,0,0,0,0,0,0,0,0,0,0,-6.8265,-6.827,-6.8468,-6.8468,-6.8468,-6.849,-6.8491,-6.8491,-6.8307,-6.8301,-6.8295,-6.8289,-6.8314,-6.832,-6.8327,0,0,0,0,0,0,0,0,0,0,0,0,0,-6.8327,-6.8272,-6.8468,-6.8379,-6.8372,-6.849,-6.8491,-6.8491,-6.8309,-6.8301,-6.8293,-6.8286,-6.8312,-6.832,-6.8328,-6.8533,0,0,-6.8353,-6.8356,0,0,0,0,0,0,0,0,-6.8324,-6.8335,-6.8392,-6.8386,-6.8377,-6.8387,-6.8428,-6.8505,-6.831,-6.8333,-6.8291,-6.8282,-6.8346,-6.8351,-6.8372,-6.8534,-6.8535,-6.8353,-6.8358,-6.8362,-6.8364,0,0,0,0,0,0,0,-6.832,-6.8333,-6.8476,-6.8393,-6.8384,-6.8338,-6.8339,-6.8442,-6.8382,-6.833,-6.8317,-6.8322,-6.834,-6.8365,-6.8371,-6.8535,-6.8353,-6.836,-6.8365,-6.8369,-6.8864,-6.8872,0,0,0,0,0,0,-6.8327,-6.8331,-6.8476,-6.8477,-6.8331,-6.8348,-6.8349,-6.8392,-6.8381,-6.8371,-6.8328,-6.8313,-6.8354,-6.8362,-6.8371,-6.8609,-6.8362,-6.8369,-6.8374,-6.8856,-6.8866,-6.8874,0,0,0,0,0,0,-6.8324,-6.8342,-6.8475,-6.84,-6.8414,-6.836,-6.841,-6.8397,-6.842,-6.8379,-6.8368,-6.8364,-6.8349,-6.836,-6.8493,-6.8607,-6.8373,-6.838,-6.8846,-6.8859,-6.887,-6.9087,0,0,0,0,0,0,-6.8319,-6.8342,-6.842,-6.8403,-6.8418,-6.8597,-6.8417,-6.8403,-6.8435,-6.8415,-6.841,-6.8401,-6.8343,-6.8482,-6.8501,-6.8614,-6.8387,-6.8835,-6.8852,-6.8866,-6.9069,-6.9105,-6.9136,0,0,0,0,0,-6.8312,-6.8481,-6.8424,-6.8443,-6.8514,-6.8604,-6.8613,-6.8542,-6.8445,-6.8522,-6.8495,-6.8402,-6.8592,-6.8497,-6.8517,-6.8635,-6.8828,-6.8847,-6.8865,-6.9055,-6.9098,-6.9135,0,0,0,0,0,0,-6.8512,-6.8477,-6.8414,-6.8582,-6.8598,-6.8573,-6.8668,-6.8591,-6.8635,-6.8615,-6.8525,-6.8526,-6.8674,-6.8667,-6.8563,-6.8831,-6.8693,-6.8716,-6.883,-6.8871,-6.8904,-6.8902,-6.8394,0,0,0,0,0,-6.8576,-6.8652,-6.8617,-6.8768,-6.8779,-6.8723,-6.876,-6.8704,-6.8716,-6.8722,-6.8705,-6.8721,-6.8783,-6.8827,-6.8883,-6.9068,-6.9063,-6.9158,-6.9191,-6.9219,-6.924,-6.9336,-6.9377,-6.8935,-6.8935,-6.8935,0,0,-6.8708,-6.8698,-6.8752,-6.8808,-6.8813,-6.8894,-6.873,-6.8822,-6.8881,-6.8736,-6.886,-6.8849,-6.886,-6.902,-6.909,-6.9019,-6.9361,-6.9242,-6.9265,-6.9271,-6.9359,-6.9401,-6.9438,-6.8948,-6.8946,-6.8944,0,0,-6.899,-6.8991,-6.9116,-6.9125,-6.9134,-6.9095,-6.9126,-6.9113,-6.9099,-6.9222,-6.9115,-6.9183,-6.9294,-6.9306,-6.9327,-6.9612,-6.9527,-6.9633,-6.9807,-6.9901,-6.9936,-6.9966,-7.0067,-7.0104,-6.9654,-6.9655,-6.9655,0,-6.9153,-6.927,-6.9191,-6.929,-6.9317,-6.9189,-6.9315,-6.9327,-6.9355,-6.9377,-6.9298,-6.9433,-6.9432,-6.9592,-6.9661,-6.9683,-6.9714,-6.9633,-6.9937,-6.9967,-6.9994,-7.0089,-7.0127,-6.9668,-6.9666,-6.9665,-6.9664,0,-6.947,-6.9552,-6.9652,-6.9682,-6.972,-6.9833,-6.977,-6.9819,-6.976,-6.9729,-6.9856,-6.985,-6.9901,-6.9935,-6.9879,-7.0088,-7.0043,-6.9953,-6.9811,-7.005,-7.0138,-7.0174,-6.9686,-6.9681,-6.9678,-6.9674,0,0,-6.9879,-6.9861,-6.99,-6.991,-6.9911,-6.9973,-7.0079,-7.0129,-7.0172,-7.0196,-7.0282,-7.0378,-7.0293,-7.0317,-7.026,-7.0344,-7.0568,-7.0241,-7.024,-7.0301,-7.0796,-7.0864,-7.0907,-7.0512,-7.0518,-7.0524,-7.0794,0,-7.0153,-7.0332,-7.0263,-7.0448,-7.0523,-7.0401,-7.0493,-7.0504,-7.0478,-7.0538,-7.0509,-7.0578,-7.0461,-7.0475,-7.0552,-7.0525,-7.0666,-7.0504,-7.059,-7.0595,-7.059,-7.0953,-7.1025,-7.1281,-7.0828,-7.0834,-7.0838,0,-7.0496,-7.0532,-7.0725,-7.0711,-7.0739,-7.0824,-7.0862,-7.0921,-7.093,-7.0905,-7.0932,-7.0856,-7.0959,-7.0819,-7.0958,-7.085,-7.0881,-7.0873,-7.0881,-7.0886,-7.073,-7.0966,-7.1361,-7.1399,-7.0892,-7.0887,-7.0883,0,-7.0774,-7.0871,-7.0997,-7.1011,-7.0998,-7.106,-7.1057,-7.1058,-7.1092,-7.1127,-7.1147,-7.1194,-7.1219,-7.1257,-7.1196,-7.11,-7.1344,-7.1199,-7.1326,-7.1328,-7.1382,-7.1379,-7.1786,-7.1405,-7.1404,-7.1403,-7.1403,0,-7.1086,-7.1209,-7.1122,-7.12,-7.1333,-7.1252,-7.1386,-7.137,-7.1372,-7.1444,-7.1343,-7.1413,-7.1329,-7.1391,-7.1345,-7.1466,-7.1479,-7.1461,-7.1447,-7.147,-7.1472,-7.1489,-7.1469,-7.1414,-7.1411,-7.1409,-7.1408,0,-7.1419,-7.1366,-7.1496,-7.1472,-7.1469,-7.1568,-7.1548,-7.1619,-7.1586,-7.1679,-7.1696,-7.1644,-7.1712,-7.1655,-7.1721,-7.169,-7.1851,-7.1812,-7.1848,-7.1837,-7.1966,-7.1954,-7.2397,-7.245,-7.2036,-7.204,-7.2044,0,-7.1621,-7.1712,-7.1698,-7.1739,-7.1742,-7.181,-7.1843,-7.1767,-7.1806,-7.1822,-7.1892,-7.195,-7.1993,-7.2108,-7.2076,-7.2126,-7.2086,-7.2238,-7.2093,-7.2113,-7.2087,-7.2082,-7.209,-7.2267,-7.2272,-7.2276,-7.2279,0,-7.1986,-7.1954,-7.2006,-7.2049,-7.2091,-7.2122,-7.2144,-7.2184,-7.2105,-7.2154,-7.2222,-7.2255,-7.2322,-7.2382,-7.2421,-7.2417,-7.2336,-7.2325,-7.2357,-7.238,-7.2397,-7.2388,-7.1927,-7.2315,-7.2312,-7.2309,-7.2307,-7.2306,-7.2258,-7.2332,-7.2333,-7.2394,-7.2402,-7.2425,-7.249,-7.2465,-7.2519,-7.2567,-7.2519,-7.2601,-7.2606,-7.2649,-7.2656,-7.2719,-7.2656,-7.2702,-7.2713,-7.2726,-7.2744,-7.2388,-7.2726,-7.2725,-7.2724,-7.2723,-7.2722,0,-7.2616,-7.261,-7.2667,-7.27,-7.2748,-7.2666,-7.2686,-7.2731,-7.2804,-7.2816,-7.2859,-7.2937,-7.2994,-7.2966,-7.3015,-7.3071,-7.3035,-7.3086,-7.3081,-7.3081,-7.2798,-7.2765,-7.3115,-7.3115,-7.3114,-7.3114,-7.3114,-7.3114,-7.2807,-7.2928,-7.2897,-7.3021,-7.3014,-7.3092,-7.3111,-7.3131,-7.3139,-7.3229,-7.3276,-7.3257,-7.3253,-7.33,-7.3349,-7.3339,-7.3362,-7.3427,-7.3404,-7.314,-7.3101,-7.3064,-7.3033,-7.3433,-7.3433,-7.3681,-7.3683,-7.3685]},{"header":{"parameterUnit":"m.s-1","parameterCategory":1,"la1":30.2991,"la2":30.254,"lo1":-89.0895,"lo2":-89.0444,"dy":0.0017,"dx":0.0017,"nx":28,"ny":28,"refTime":"2025-01-19T03:00:00:Z","depth":0,"parameterNumber":3,"parameterNumberName":"V-component_of_WINDS"},"data":[0,0,0,0,0,0,0,0,0,0,0,0,0,0,0,0,0,0,0,0,0,0,0,0,0,0,0,0,0,0,0,0,0,0,0,0,0,0,0,0,0,0,0,0,0,0,0,0,0,0,0,0,0,0,0,0,0,0,-4.6913,-4.6914,0,-4.6977,-4.6978,-4.6978,-4.6939,-4.6938,-4.6936,-4.6934,-4.6995,-4.6999,-4.7002,0,0,0,0,0,0,0,0,0,0,0,0,0,-4.6753,-4.6756,-4.6913,-4.6914,-4.6915,-4.6977,-4.6978,-4.6978,-4.694,-4.6937,-4.6935,-4.6933,-4.6994,-4.6998,-4.7002,0,0,0,0,0,0,0,0,0,0,0,0,0,-4.682,-4.6757,-4.6913,-4.6903,-4.6903,-4.6977,-4.6978,-4.6979,-4.694,-4.6937,-4.6935,-4.6932,-4.6993,-4.6998,-4.7003,-4.7089,0,0,-4.7018,-4.702,0,0,0,0,0,0,0,0,-4.6817,-4.6826,-4.6904,-4.6904,-4.6904,-4.6947,-4.6944,-4.7016,-4.6941,-4.6926,-4.6934,-4.6931,-4.6981,-4.6987,-4.7005,-4.7092,-4.7095,-4.7019,-4.7022,-4.7024,-4.7025,0,0,0,0,0,0,0,-4.6812,-4.6823,-4.6938,-4.6905,-4.6905,-4.6894,-4.69,-4.6957,-4.6968,-4.6927,-4.6924,-4.6933,-4.6981,-4.7,-4.7006,-4.7095,-4.7019,-4.7023,-4.7026,-4.7028,-4.7253,-4.7256,0,0,0,0,0,0,-4.6809,-4.682,-4.6936,-4.694,-4.6853,-4.6899,-4.6906,-4.6936,-4.6968,-4.697,-4.6935,-4.6931,-4.6993,-4.7,-4.7008,-4.7109,-4.7024,-4.7029,-4.7031,-4.725,-4.7253,-4.7257,0,0,0,0,0,0,-4.6805,-4.682,-4.6934,-4.6879,-4.6893,-4.6905,-4.6939,-4.6939,-4.6958,-4.6974,-4.6975,-4.6953,-4.6991,-4.7001,-4.7069,-4.7111,-4.7031,-4.7035,-4.7246,-4.7251,-4.7255,-4.7313,0,0,0,0,0,0,-4.6801,-4.6819,-4.6853,-4.688,-4.6896,-4.6995,-4.6941,-4.6942,-4.6968,-4.6962,-4.6991,-4.6993,-4.699,-4.7062,-4.7074,-4.7116,-4.7039,-4.7243,-4.7248,-4.7254,-4.7307,-4.7319,-4.7329,0,0,0,0,0,-4.6795,-4.6866,-4.6855,-4.6869,-4.6939,-4.6998,-4.7006,-4.7002,-4.6971,-4.7004,-4.7014,-4.6992,-4.7105,-4.7069,-4.7082,-4.7127,-4.724,-4.7247,-4.7253,-4.7302,-4.7317,-4.7328,0,0,0,0,0,0,-4.6843,-4.687,-4.6857,-4.694,-4.6967,-4.6991,-4.7033,-4.7018,-4.7053,-4.7047,-4.7039,-4.7046,-4.7116,-4.7128,-4.7088,-4.721,-4.7167,-4.7177,-4.72,-4.7213,-4.7224,-4.7219,-4.7043,0,0,0,0,0,-4.6863,-4.6909,-4.693,-4.7001,-4.7015,-4.7022,-4.7047,-4.7041,-4.7069,-4.7079,-4.7094,-4.712,-4.7161,-4.7188,-4.7226,-4.7309,-4.7313,-4.7346,-4.7357,-4.7365,-4.7373,-4.7415,-4.7429,-4.7279,-4.7278,-4.7278,0,0,-4.6905,-4.6925,-4.6955,-4.7011,-4.7031,-4.7077,-4.7032,-4.7083,-4.7117,-4.7087,-4.7151,-4.7163,-4.7191,-4.7266,-4.73,-4.7278,-4.7416,-4.7374,-4.7381,-4.7384,-4.7424,-4.7438,-4.7451,-4.7283,-4.7282,-4.7281,0,0,-4.7004,-4.7026,-4.7086,-4.7107,-4.7138,-4.7142,-4.7156,-4.7183,-4.7189,-4.7254,-4.7232,-4.7271,-4.7342,-4.7363,-4.7382,-4.7488,-4.7468,-4.75,-4.7555,-4.7596,-4.7608,-4.7619,-4.7654,-4.7667,-4.7508,-4.7509,-4.7509,0,-4.7052,-4.7123,-4.7118,-4.7171,-4.7195,-4.7171,-4.723,-4.725,-4.7292,-4.7308,-4.7284,-4.7371,-4.7389,-4.7467,-4.7492,-4.751,-4.7524,-4.7497,-4.7607,-4.7618,-4.7627,-4.7661,-4.7674,-4.7512,-4.7512,-4.7511,-4.7511,0,-4.7178,-4.7227,-4.7272,-4.7313,-4.7342,-4.7398,-4.74,-4.743,-4.7421,-4.7427,-4.7491,-4.7512,-4.7553,-4.7571,-4.7563,-4.7647,-4.7633,-4.7608,-4.7564,-4.7645,-4.7677,-4.769,-4.7517,-4.7516,-4.7515,-4.7514,0,0,-4.731,-4.7347,-4.7363,-4.7381,-4.7413,-4.745,-4.7503,-4.7544,-4.7569,-4.7598,-4.7641,-4.7701,-4.7678,-4.77,-4.7695,-4.7731,-4.781,-4.7701,-4.7702,-4.7719,-4.7901,-4.7918,-4.7933,-4.7798,-4.78,-4.7802,-4.7898,0,-4.741,-4.7505,-4.7501,-4.7589,-4.7632,-4.7609,-4.7655,-4.7679,-4.7685,-4.7722,-4.7728,-4.777,-4.7738,-4.775,-4.7785,-4.7793,-4.7846,-4.7786,-4.7835,-4.7837,-4.7828,-4.795,-4.7969,-4.8058,-4.791,-4.7912,-4.7914,0,-4.7539,-4.7573,-4.7665,-4.7689,-4.7707,-4.7749,-4.7784,-4.7821,-4.7846,-4.7848,-4.7872,-4.786,-4.7912,-4.7867,-4.7937,-4.7896,-4.7916,-4.7923,-4.7926,-4.7929,-4.7879,-4.7954,-4.8087,-4.81,-4.7933,-4.7932,-4.793,0,-4.7623,-4.7692,-4.7755,-4.7771,-4.7801,-4.783,-4.7844,-4.7866,-4.789,-4.7921,-4.7936,-4.7973,-4.7993,-4.802,-4.8017,-4.7986,-4.8088,-4.8043,-4.8089,-4.8089,-4.811,-4.8109,-4.8246,-4.8126,-4.8126,-4.8126,-4.8125,0,-4.7734,-4.7791,-4.7793,-4.7832,-4.7894,-4.7888,-4.7949,-4.7959,-4.7979,-4.8018,-4.8,-4.8037,-4.8031,-4.8067,-4.8065,-4.8122,-4.8132,-4.8133,-4.8131,-4.8134,-4.8133,-4.8146,-4.8138,-4.8129,-4.8128,-4.8128,-4.8127,0,-4.7838,-4.7842,-4.7909,-4.7932,-4.7938,-4.7983,-4.8001,-4.8036,-4.8041,-4.809,-4.8101,-4.8108,-4.8149,-4.8149,-4.8196,-4.8195,-4.8264,-4.8256,-4.8255,-4.8253,-4.8298,-4.8293,-4.8446,-4.8465,-4.8335,-4.8336,-4.8337,0,-4.7908,-4.7951,-4.7978,-4.8003,-4.8018,-4.8059,-4.8083,-4.8079,-4.8105,-4.8136,-4.8167,-4.8207,-4.8238,-4.8305,-4.8313,-4.8348,-4.8339,-4.8391,-4.8345,-4.8345,-4.8338,-4.8335,-4.8338,-4.8399,-4.8401,-4.8402,-4.8403,0,-4.803,-4.803,-4.8066,-4.8103,-4.8133,-4.8162,-4.8188,-4.8209,-4.8207,-4.8237,-4.8279,-4.8304,-4.8351,-4.839,-4.8424,-4.8435,-4.8418,-4.8418,-4.8429,-4.8431,-4.8428,-4.8428,-4.8278,-4.8414,-4.8413,-4.8412,-4.8411,-4.8411,-4.8118,-4.8154,-4.8178,-4.8219,-4.8238,-4.8263,-4.8297,-4.8305,-4.8341,-4.838,-4.8375,-4.8421,-4.8443,-4.8487,-4.8501,-4.8536,-4.8518,-4.8536,-4.854,-4.8544,-4.8548,-4.8424,-4.8543,-4.8542,-4.8542,-4.8542,-4.8541,0,-4.8238,-4.8252,-4.8289,-4.8327,-4.8358,-4.834,-4.8368,-4.8395,-4.8436,-4.8458,-4.849,-4.8537,-4.8574,-4.8585,-4.862,-4.8645,-4.8638,-4.8655,-4.8652,-4.8654,-4.8563,-4.8548,-4.866,-4.866,-4.866,-4.866,-4.866,-4.866,-4.8304,-4.8363,-4.8365,-4.8433,-4.8447,-4.8493,-4.8509,-4.8531,-4.8549,-4.8603,-4.8633,-4.8641,-4.8657,-4.8693,-4.8726,-4.8728,-4.8741,-4.876,-4.8758,-4.8673,-4.8661,-4.865,-4.8636,-4.8763,-4.8763,-4.8846,-4.8847,-4.8848]}]]